Powrót do katalogu

COSMOS 839 DEB

AktywnyLEO
NORAD 10465·DEBRIS·🇷🇺 Russia

Wystrzelony Jul 8, 1976 z Plesetsk Cosmodrome

Loading…

Następne Przeloty (najbliższe 24 godziny)

TLE

ŚwieżeSource: Space-Track

Epoka: Sep 14, 2026, 05:20 UTC

1 10465U 76067AJ  26257.22239911  .00000058  00000-0  24736-3 0  9991
2 10465  65.5694 334.5445 0726738  55.6100 311.1459 12.59487538577590

Śledź COSMOS 839 DEB w czasie rzeczywistym z AllMySat

Download on the App Store